Time,TemperatureF,DewpointF,PressureIn,WindDirection,WindDirectionDegrees,WindSpeedMPH,WindSpeedGustMPH,Humidity,HourlyPrecipIn,Conditions,Clouds,dailyrainin,SoftwareType,DateUTC
2013-04-27 00:01:00,32.5,20.9,30.15,West,262,3.5,3.5,62,0.00,CLR,,0.00,WeatherDisplay:10.37,2013-04-27 06:01:00,
2013-04-27 00:06:00,32.9,20.9,30.15,West,262,3.5,3.5,61,0.00,CLR,,0.00,WeatherDisplay:10.37,2013-04-27 06:06:00,
2013-04-27 00:11:00,32.9,20.9,30.15,West,262,0.0,0.0,61,0.00,CLR,,0.00,WeatherDisplay:10.37,2013-04-27 06:11:00,
2013-04-27 00:16:00,32.7,20.7,30.12,West,262,3.5,3.5,61,0.00,CLR,,0.00,WeatherDisplay:10.37,2013-04-27 06:16:00,
2013-04-27 00:21:00,32.8,21.2,30.12,West,262,3.5,3.5,62,0.00,CLR,,0.00,WeatherDisplay:10.37,2013-04-27 06:21:00,
2013-04-27 00:26:00,32.9,20.9,30.12,West,262,2.3,2.3,61,0.00,CLR,,0.00,WeatherDisplay:10.37,2013-04-27 06:26:00,
2013-04-27 00:31:00,32.5,20.9,30.12,West,262,1.2,1.2,62,0.00,CLR,,0.00,WeatherDisplay:10.37,2013-04-27 06:31:00,
2013-04-27 00:36:00,31.9,20.7,30.12,West,262,2.3,2.3,63,0.00,CLR,,0.00,WeatherDisplay:10.37,2013-04-27 06:36:00,
2013-04-27 00:41:00,31.3,20.5,30.12,West,266,2.3,2.3,64,0.00,CLR,,0.00,WeatherDisplay:10.37,2013-04-27 06:41:00,
2013-04-27 00:46:00,30.9,20.1,30.14,West,266,1.2,0.0,64,0.00,CLR,,0.00,WeatherDisplay:10.37,2013-04-27 06:46:00,
2013-04-27 00:51:00,30.6,20.2,30.14,West,266,2.3,2.3,65,0.00,CLR,,0.00,WeatherDisplay:10.37,2013-04-27 06:51:00,
2013-04-27 00:56:00,30.3,20.3,30.14,West,266,1.2,1.2,66,0.00,CLR,,0.00,WeatherDisplay:10.37,2013-04-27 06:56:00,
2013-04-27 01:01:00,30.0,20.4,30.16,West,266,2.3,2.3,67,0.00,CLR,,0.00,WeatherDisplay:10.37,2013-04-27 07:01:00,
2013-04-27 01:06:00,29.7,20.1,30.16,West,266,2.3,2.3,67,0.00,CLR,,0.00,WeatherDisplay:10.37,2013-04-27 07:06:00,
2013-04-27 01:11:00,29.4,20.1,30.16,West,268,2.3,2.3,68,0.00,CLR,,0.00,WeatherDisplay:10.37,2013-04-27 07:11:00,
2013-04-27 01:16:00,29.4,20.1,30.17,West,266,2.3,2.3,68,0.00,CLR,,0.00,WeatherDisplay:10.37,2013-04-27 07:16:00,
2013-04-27 01:21:00,29.3,20.4,30.17,WNW,288,1.2,1.2,69,0.00,CLR,,0.00,WeatherDisplay:10.37,2013-04-27 07:21:00,
2013-04-27 01:26:00,29.0,20.1,30.17,WNW,288,2.3,2.3,69,0.00,CLR,,0.00,WeatherDisplay:10.37,2013-04-27 07:26:00,
2013-04-27 01:31:00,28.8,19.9,30.16,WNW,288,2.3,2.3,69,0.00,CLR,,0.00,WeatherDisplay:10.37,2013-04-27 07:31:00,
2013-04-27 01:36:00,28.8,19.9,30.16,WNW,288,2.3,2.3,69,0.00,CLR,,0.00,WeatherDisplay:10.37,2013-04-27 07:36:00,
2013-04-27 01:41:00,28.8,19.9,30.16,WNW,288,2.0,2.0,69,0.00,CLR,,0.00,WeatherDisplay:10.37,2013-04-27 07:41:00,
2013-04-27 01:46:00,28.7,19.8,30.15,WNW,288,2.3,2.3,69,0.00,CLR,,0.00,WeatherDisplay:10.37,2013-04-27 07:46:00,
2013-04-27 01:51:00,28.5,20.0,30.15,WNW,288,0.0,0.0,70,0.00,CLR,,0.00,WeatherDisplay:10.37,2013-04-27 07:51:00,
2013-04-27 01:56:00,28.4,19.9,30.15,WNW,288,1.2,0.0,70,0.00,CLR,,0.00,WeatherDisplay:10.37,2013-04-27 07:56:00,
2013-04-27 02:01:00,28.2,19.7,30.17,WNW,288,1.2,0.0,70,0.00,CLR,,0.00,WeatherDisplay:10.37,2013-04-27 08:01:00,
2013-04-27 02:06:00,27.9,19.4,30.17,WNW,288,1.2,0.0,70,0.00,CLR,,0.00,WeatherDisplay:10.37,2013-04-27 08:06:00,
2013-04-27 02:11:00,27.8,19.3,30.17,WNW,288,0.0,0.0,70,0.00,CLR,,0.00,WeatherDisplay:10.37,2013-04-27 08:11:00,
2013-04-27 02:16:00,27.8,19.6,30.15,WNW,288,2.3,2.3,71,0.00,CLR,,0.00,WeatherDisplay:10.37,2013-04-27 08:16:00,
2013-04-27 02:21:00,27.6,19.4,30.15,WNW,288,1.2,0.0,71,0.00,CLR,,0.00,WeatherDisplay:10.37,2013-04-27 08:21:00,
2013-04-27 02:26:00,27.5,19.3,30.15,WNW,283,2.3,2.3,71,0.00,CLR,,0.00,WeatherDisplay:10.37,2013-04-27 08:26:00,
2013-04-27 02:31:00,27.3,19.5,30.14,WNW,283,0.0,0.0,72,0.00,CLR,,0.00,WeatherDisplay:10.37,2013-04-27 08:31:00,
2013-04-27 02:36:00,27.2,19.4,30.14,NNW,330,3.5,3.5,72,0.00,CLR,,0.00,WeatherDisplay:10.37,2013-04-27 08:36:00,
2013-04-27 02:41:00,27.2,19.4,30.14,NNW,330,3.5,3.5,72,0.00,CLR,,0.00,WeatherDisplay:10.37,2013-04-27 08:41:00,
2013-04-27 02:46:00,27.2,19.4,30.14,NNW,330,1.2,1.2,72,0.00,CLR,,0.00,WeatherDisplay:10.37,2013-04-27 08:46:00,
2013-04-27 02:51:00,27.3,19.1,30.14,NNW,330,1.2,1.2,71,0.00,CLR,,0.00,WeatherDisplay:10.37,2013-04-27 08:51:00,
2013-04-27 02:56:00,27.5,19.3,30.14,NNW,330,1.2,1.2,71,0.00,CLR,,0.00,WeatherDisplay:10.37,2013-04-27 08:56:00,
2013-04-27 03:01:00,27.5,19.7,30.13,NNW,330,0.0,0.0,72,0.00,CLR,,0.00,WeatherDisplay:10.37,2013-04-27 09:01:00,
2013-04-27 03:06:00,27.3,19.5,30.13,NNW,330,0.0,0.0,72,0.00,CLR,,0.00,WeatherDisplay:10.37,2013-04-27 09:06:00,
2013-04-27 03:11:00,27.3,19.8,30.13,NNW,330,1.2,1.2,73,0.00,CLR,,0.00,WeatherDisplay:10.37,2013-04-27 09:11:00,
2013-04-27 03:16:00,27.2,19.7,30.16,NNW,330,0.0,0.0,73,0.00,CLR,,0.00,WeatherDisplay:10.37,2013-04-27 09:16:00,
2013-04-27 03:21:00,26.9,19.4,30.16,NNW,330,0.0,0.0,73,0.00,CLR,,0.00,WeatherDisplay:10.37,2013-04-27 09:21:00,
2013-04-27 03:26:00,26.7,18.9,30.16,NNW,330,1.2,0.0,72,0.00,CLR,,0.00,WeatherDisplay:10.37,2013-04-27 09:26:00,
2013-04-27 03:31:00,26.7,18.9,30.16,NNW,330,5.0,5.0,72,0.00,CLR,,0.00,WeatherDisplay:10.37,2013-04-27 09:31:00,
2013-04-27 03:36:00,26.7,18.9,30.16,NNW,330,2.3,2.3,72,0.00,CLR,,0.00,WeatherDisplay:10.37,2013-04-27 09:36:00,
2013-04-27 03:41:00,26.7,18.9,30.16,NNW,330,2.3,2.3,72,0.00,CLR,,0.00,WeatherDisplay:10.37,2013-04-27 09:41:00,
2013-04-27 03:46:00,26.9,18.7,30.16,NNW,330,3.5,3.5,71,0.00,CLR,,0.00,WeatherDisplay:10.37,2013-04-27 09:46:00,
2013-04-27 03:51:00,26.9,18.7,30.16,NNW,330,0.0,0.0,71,0.00,CLR,,0.00,WeatherDisplay:10.37,2013-04-27 09:51:00,
2013-04-27 03:56:00,27.2,18.7,30.16,NNW,334,2.3,2.3,70,0.00,CLR,,0.00,WeatherDisplay:10.37,2013-04-27 09:56:00,
2013-04-27 04:01:00,27.3,18.5,30.15,NNW,334,0.0,0.0,69,0.00,CLR,,0.00,WeatherDisplay:10.37,2013-04-27 10:01:00,
2013-04-27 04:06:00,27.3,18.8,30.15,NNW,334,0.0,0.0,70,0.00,CLR,,0.00,WeatherDisplay:10.37,2013-04-27 10:06:00,
2013-04-27 04:11:00,27.3,18.5,30.15,NNW,334,0.0,0.0,69,0.00,CLR,,0.00,WeatherDisplay:10.37,2013-04-27 10:11:00,
2013-04-27 04:16:00,27.2,18.4,30.14,NNW,334,0.0,0.0,69,0.00,CLR,,0.00,WeatherDisplay:10.37,2013-04-27 10:16:00,
2013-04-27 04:21:00,27.3,18.1,30.14,NNW,334,1.2,1.2,68,0.00,CLR,,0.00,WeatherDisplay:10.37,2013-04-27 10:21:00,
2013-04-27 04:26:00,27.2,18.0,30.14,NNW,334,1.0,1.0,68,0.00,CLR,,0.00,WeatherDisplay:10.37,2013-04-27 10:26:00,
2013-04-27 04:31:00,27.2,18.0,30.14,NNW,334,0.0,0.0,68,0.00,CLR,,0.00,WeatherDisplay:10.37,2013-04-27 10:31:00,
2013-04-27 04:36:00,27.2,17.7,30.14,NNW,334,3.5,3.5,67,0.00,CLR,,0.00,WeatherDisplay:10.37,2013-04-27 10:36:00,
2013-04-27 04:41:00,27.2,17.7,30.14,NNW,334,1.2,0.0,67,0.00,CLR,,0.00,WeatherDisplay:10.37,2013-04-27 10:41:00,
2013-04-27 04:46:00,27.2,17.7,30.14,NNW,334,0.0,0.0,67,0.00,CLR,,0.00,WeatherDisplay:10.37,2013-04-27 10:46:00,
2013-04-27 04:51:00,27.2,17.3,30.14,NNW,334,0.0,0.0,66,0.00,CLR,,0.00,WeatherDisplay:10.37,2013-04-27 10:51:00,
2013-04-27 04:56:00,27.2,17.3,30.14,NNW,334,0.0,0.0,66,0.00,CLR,,0.00,WeatherDisplay:10.37,2013-04-27 10:56:00,
2013-04-27 05:01:00,27.3,17.1,30.14,NNW,334,2.3,2.3,65,0.00,CLR,,0.00,WeatherDisplay:10.37,2013-04-27 11:01:00,
2013-04-27 05:06:00,27.5,16.9,30.14,NNW,334,2.3,2.3,64,0.00,CLR,,0.00,WeatherDisplay:10.37,2013-04-27 11:06:00,
2013-04-27 05:11:00,27.6,17.4,30.14,North,352,3.5,3.5,65,0.00,CLR,,0.00,WeatherDisplay:10.37,2013-04-27 11:11:00,
2013-04-27 05:16:00,27.6,17.7,30.14,North,352,2.3,2.3,66,0.00,CLR,,0.00,WeatherDisplay:10.37,2013-04-27 11:16:00,
2013-04-27 05:21:00,27.5,17.3,30.14,NNW,344,2.3,0.0,65,0.00,CLR,,0.00,WeatherDisplay:10.37,2013-04-27 11:21:00,
2013-04-27 05:26:00,27.5,17.3,30.14,NW,309,2.3,2.3,65,0.00,CLR,,0.00,WeatherDisplay:10.37,2013-04-27 11:26:00,
2013-04-27 05:31:00,27.5,17.3,30.14,North,355,2.3,2.3,65,0.00,CLR,,0.00,WeatherDisplay:10.37,2013-04-27 11:31:00,
2013-04-27 05:36:00,27.6,17.0,30.14,NW,314,3.5,0.0,64,0.00,CLR,,0.00,WeatherDisplay:10.37,2013-04-27 11:36:00,
2013-04-27 05:41:00,27.8,16.8,30.14,NW,314,1.2,1.2,63,0.00,CLR,,0.00,WeatherDisplay:10.37,2013-04-27 11:41:00,
2013-04-27 05:46:00,27.8,16.8,30.14,NW,314,2.3,2.3,63,0.00,CLR,,0.00,WeatherDisplay:10.37,2013-04-27 11:46:00,
2013-04-27 05:51:00,27.5,16.9,30.14,NW,314,2.3,2.3,64,0.00,CLR,,0.00,WeatherDisplay:10.37,2013-04-27 11:51:00,
2013-04-27 05:56:00,27.3,16.7,30.14,NW,314,2.3,2.3,64,0.00,CLR,,0.00,WeatherDisplay:10.37,2013-04-27 11:56:00,
2013-04-27 06:01:00,27.2,16.6,30.16,NNW,328,4.6,4.6,64,0.00,CLR,,0.00,WeatherDisplay:10.37,2013-04-27 12:01:00,
2013-04-27 06:06:00,27.0,16.8,30.16,NNW,328,3.5,3.5,65,0.00,CLR,,0.00,WeatherDisplay:10.37,2013-04-27 12:06:00,
2013-04-27 06:11:00,27.0,16.4,30.16,NNW,328,2.3,2.3,64,0.00,CLR,,0.00,WeatherDisplay:10.37,2013-04-27 12:11:00,
2013-04-27 06:16:00,27.2,16.6,30.18,NNW,328,3.5,3.5,64,0.00,CLR,,0.00,WeatherDisplay:10.37,2013-04-27 12:16:00,
2013-04-27 06:21:00,27.2,16.6,30.18,NNW,328,4.6,4.6,64,0.00,CLR,,0.00,WeatherDisplay:10.37,2013-04-27 12:21:00,
2013-04-27 06:26:00,27.2,16.6,30.18,NNW,328,3.5,3.5,64,0.00,CLR,,0.00,WeatherDisplay:10.37,2013-04-27 12:26:00,
2013-04-27 06:31:00,27.3,16.7,30.18,NNW,328,2.3,2.3,64,0.00,CLR,,0.00,WeatherDisplay:10.37,2013-04-27 12:31:00,
2013-04-27 06:36:00,27.9,16.6,30.18,NNW,328,2.3,0.0,62,0.00,CLR,,0.00,WeatherDisplay:10.37,2013-04-27 12:36:00,
2013-04-27 06:41:00,28.5,17.9,30.18,NNW,328,0.0,0.0,64,0.00,CLR,,0.00,WeatherDisplay:10.37,2013-04-27 12:41:00,
2013-04-27 06:46:00,29.3,17.5,30.17,NNW,328,0.0,0.0,61,0.00,CLR,,0.00,WeatherDisplay:10.37,2013-04-27 12:46:00,
2013-04-27 06:51:00,30.0,17.8,30.17,NNW,328,0.0,0.0,60,0.00,CLR,,0.00,WeatherDisplay:10.37,2013-04-27 12:51:00,
2013-04-27 06:56:00,30.9,18.6,30.17,NW,326,2.0,2.0,60,0.00,CLR,,0.00,WeatherDisplay:10.37,2013-04-27 12:56:00,
2013-04-27 07:01:00,31.6,20.4,30.15,NW,326,1.2,1.2,63,0.00,CLR,,0.00,WeatherDisplay:10.37,2013-04-27 13:01:00,
2013-04-27 07:06:00,32.4,21.2,30.15,NNE,22,2.3,2.3,63,0.00,CLR,,0.00,WeatherDisplay:10.37,2013-04-27 13:06:00,
2013-04-27 07:11:00,32.9,20.5,30.15,NNE,22,0.0,0.0,60,0.00,CLR,,0.00,WeatherDisplay:10.37,2013-04-27 13:11:00,
2013-04-27 07:16:00,33.5,19.9,30.16,NNE,22,2.3,2.3,57,0.00,CLR,,0.00,WeatherDisplay:10.37,2013-04-27 13:16:00,
2013-04-27 07:21:00,34.6,19.6,30.16,NNE,22,1.0,1.0,54,0.00,CLR,,0.00,WeatherDisplay:10.37,2013-04-27 13:21:00,
2013-04-27 07:26:00,35.8,21.6,30.16,NNE,21,1.2,1.2,56,0.00,CLR,,0.00,WeatherDisplay:10.37,2013-04-27 13:26:00,
2013-04-27 07:31:00,36.6,24.4,30.13,NNE,22,1.2,0.0,61,0.00,CLR,,0.00,WeatherDisplay:10.37,2013-04-27 13:31:00,
2013-04-27 07:36:00,36.9,23.9,30.13,NNE,22,1.2,1.2,59,0.00,CLR,,0.00,WeatherDisplay:10.37,2013-04-27 13:36:00,
2013-04-27 07:41:00,37.6,24.6,30.13,NNE,22,2.3,2.3,59,0.00,CLR,,0.00,WeatherDisplay:10.37,2013-04-27 13:41:00,
2013-04-27 07:48:00,38.3,24.8,30.10,ENE,62,3.5,3.5,58,0.00,CLR,,0.00,WeatherDisplay:10.37,2013-04-27 13:48:00,
2013-04-27 07:53:00,39.3,23.1,30.10,ENE,69,1.2,1.2,52,0.00,CLR,,0.00,WeatherDisplay:10.37,2013-04-27 13:53:00,
2013-04-27 07:58:00,39.9,25.5,30.10,ESE,108,1.2,1.2,56,0.00,CLR,,0.00,WeatherDisplay:10.37,2013-04-27 13:58:00,
2013-04-27 08:03:00,40.2,23.0,30.08,SSE,162,2.3,2.3,50,0.00,CLR,,0.00,WeatherDisplay:10.37,2013-04-27 14:03:00,
2013-04-27 08:08:00,40.9,24.6,30.08,SSE,158,4.6,4.6,52,0.00,CLR,,0.00,WeatherDisplay:10.37,2013-04-27 14:08:00,
2013-04-27 08:13:00,42.2,22.9,30.08,West,269,10.4,10.4,46,0.00,CLR,,0.00,WeatherDisplay:10.37,2013-04-27 14:13:00,
2013-04-27 08:18:00,46.8,16.2,30.11,West,261,17.3,17.3,29,0.00,CLR,,0.00,WeatherDisplay:10.37,2013-04-27 14:18:00,
2013-04-27 08:23:00,49.2,15.7,30.11,SW,221,19.6,19.6,26,0.00,CLR,,0.00,WeatherDisplay:10.37,2013-04-27 14:23:00,
2013-04-27 08:28:00,50.2,14.7,30.11,WSW,255,16.1,16.1,24,0.00,CLR,,0.00,WeatherDisplay:10.37,2013-04-27 14:28:00,
2013-04-27 08:33:00,50.5,15.0,30.07,SW,231,19.6,19.6,24,0.00,CLR,,0.00,WeatherDisplay:10.37,2013-04-27 14:33:00,
2013-04-27 08:38:00,50.8,15.2,30.07,WSW,252,17.3,17.3,24,0.00,CLR,,0.00,WeatherDisplay:10.37,2013-04-27 14:38:00,
2013-04-27 08:43:00,51.3,14.7,30.07,West,272,16.1,16.1,23,0.00,CLR,,0.00,WeatherDisplay:10.37,2013-04-27 14:43:00,
2013-04-27 08:48:00,51.4,14.8,30.05,SW,230,19.6,19.6,23,0.00,CLR,,0.00,WeatherDisplay:10.37,2013-04-27 14:48:00,
2013-04-27 08:53:00,51.9,14.2,30.05,SW,235,19.6,19.6,22,0.00,CLR,,0.00,WeatherDisplay:10.37,2013-04-27 14:53:00,
2013-04-27 08:58:00,52.2,14.4,30.05,SW,234,19.6,19.6,22,0.00,CLR,,0.00,WeatherDisplay:10.37,2013-04-27 14:58:00,
2013-04-27 09:03:00,52.3,15.5,30.05,West,276,18.4,18.4,23,0.00,CLR,,0.00,WeatherDisplay:10.37,2013-04-27 15:03:00,
2013-04-27 09:08:00,52.6,14.8,30.05,West,262,19.6,19.6,22,0.00,CLR,,0.00,WeatherDisplay:10.37,2013-04-27 15:08:00,
2013-04-27 09:13:00,52.9,15.0,30.05,SW,227,17.0,17.0,22,0.00,CLR,,0.00,WeatherDisplay:10.37,2013-04-27 15:13:00,
2013-04-27 09:18:00,53.2,14.2,30.05,WSW,242,19.6,19.6,21,0.00,CLR,,0.00,WeatherDisplay:10.37,2013-04-27 15:18:00,
2013-04-27 09:23:00,53.6,15.6,30.05,WSW,240,16.1,16.1,22,0.00,CLR,,0.00,WeatherDisplay:10.37,2013-04-27 15:23:00,
2013-04-27 09:28:00,53.8,14.7,30.05,SW,232,18.0,18.0,21,0.00,CLR,,0.00,WeatherDisplay:10.37,2013-04-27 15:28:00,
2013-04-27 09:33:00,53.5,12.2,30.04,SW,216,25.3,25.3,19,0.00,CLR,,0.00,WeatherDisplay:10.37,2013-04-27 15:33:00,
2013-04-27 09:38:00,53.8,14.7,30.04,SW,216,19.6,19.6,21,0.00,CLR,,0.00,WeatherDisplay:10.37,2013-04-27 15:38:00,
2013-04-27 09:43:00,53.9,14.8,30.04,SW,225,19.6,19.6,21,0.00,CLR,,0.00,WeatherDisplay:10.37,2013-04-27 15:43:00,
2013-04-27 09:48:00,54.7,14.4,30.05,WSW,252,19.6,19.6,20,0.00,CLR,,0.00,WeatherDisplay:10.37,2013-04-27 15:48:00,
2013-04-27 09:53:00,54.4,15.2,30.05,SW,221,16.1,16.1,21,0.00,CLR,,0.00,WeatherDisplay:10.37,2013-04-27 15:53:00,
2013-04-27 09:58:00,55.0,14.6,30.05,SW,232,17.3,17.3,20,0.00,CLR,,0.00,WeatherDisplay:10.37,2013-04-27 15:58:00,
2013-04-27 10:03:00,55.0,13.4,30.03,WSW,251,19.6,19.6,19,0.00,CLR,,0.00,WeatherDisplay:10.37,2013-04-27 16:03:00,
2013-04-27 10:08:00,54.8,14.4,30.03,West,259,13.8,13.8,20,0.00,CLR,,0.00,WeatherDisplay:10.37,2013-04-27 16:08:00,
2013-04-27 10:13:00,55.3,14.8,30.03,West,269,16.1,16.1,20,0.00,CLR,,0.00,WeatherDisplay:10.37,2013-04-27 16:13:00,
2013-04-27 10:18:00,55.6,13.9,30.08,SW,225,17.3,17.3,19,0.00,CLR,,0.00,WeatherDisplay:10.37,2013-04-27 16:18:00,
2013-04-27 10:23:00,55.4,12.5,30.08,WSW,245,19.6,19.6,18,0.00,CLR,,0.00,WeatherDisplay:10.37,2013-04-27 16:23:00,
2013-04-27 10:28:00,55.7,14.0,30.08,SSW,194,18.4,18.4,19,0.00,CLR,,0.00,WeatherDisplay:10.37,2013-04-27 16:28:00,
2013-04-27 10:33:00,56.3,14.5,30.07,West,280,24.0,24.0,19,0.00,CLR,,0.00,WeatherDisplay:10.37,2013-04-27 16:33:00,
2013-04-27 10:38:00,55.9,14.2,30.07,West,264,19.0,19.0,19,0.00,CLR,,0.00,WeatherDisplay:10.37,2013-04-27 16:38:00,
2013-04-27 10:43:00,55.9,11.6,30.07,West,262,19.6,19.6,17,0.00,CLR,,0.00,WeatherDisplay:10.37,2013-04-27 16:43:00,
2013-04-27 10:48:00,56.5,13.4,30.07,West,259,21.9,21.9,18,0.00,CLR,,0.00,WeatherDisplay:10.37,2013-04-27 16:48:00,
2013-04-27 10:53:00,56.3,13.3,30.07,WSW,245,17.3,17.3,18,0.00,CLR,,0.00,WeatherDisplay:10.37,2013-04-27 16:53:00,
2013-04-27 10:58:00,56.5,12.1,30.07,WSW,251,17.3,17.3,17,0.00,CLR,,0.00,WeatherDisplay:10.37,2013-04-27 16:58:00,
2013-04-27 11:03:00,57.0,12.5,30.07,WSW,255,17.3,17.3,17,0.00,CLR,,0.00,WeatherDisplay:10.37,2013-04-27 17:03:00,
2013-04-27 11:08:00,57.0,11.2,30.07,SW,234,16.1,16.1,16,0.00,CLR,,0.00,WeatherDisplay:10.37,2013-04-27 17:08:00,
2013-04-27 11:13:00,57.3,14.1,30.07,West,259,19.6,19.6,18,0.00,CLR,,0.00,WeatherDisplay:10.37,2013-04-27 17:13:00,
2013-04-27 11:18:00,57.3,11.4,30.07,WSW,252,19.6,19.6,16,0.00,CLR,,0.00,WeatherDisplay:10.37,2013-04-27 17:18:00,
2013-04-27 11:23:00,57.2,14.0,30.07,SW,223,12.7,12.7,18,0.00,CLR,,0.00,WeatherDisplay:10.37,2013-04-27 17:23:00,
2013-04-27 11:28:00,57.5,11.6,30.07,West,266,19.6,19.6,16,0.00,CLR,,0.00,WeatherDisplay:10.37,2013-04-27 17:28:00,
2013-04-27 11:33:00,57.2,11.3,30.07,WSW,248,21.9,21.9,16,0.00,CLR,,0.00,WeatherDisplay:10.37,2013-04-27 17:33:00,
2013-04-27 11:38:00,57.6,13.0,30.07,WSW,240,18.4,18.4,17,0.00,CLR,,0.00,WeatherDisplay:10.37,2013-04-27 17:38:00,
2013-04-27 11:43:00,57.8,11.8,30.07,West,266,16.1,16.1,16,0.00,CLR,,0.00,WeatherDisplay:10.37,2013-04-27 17:43:00,
2013-04-27 11:48:00,58.3,12.2,30.07,WNW,303,11.5,11.5,16,0.00,CLR,,0.00,WeatherDisplay:10.37,2013-04-27 17:48:00,
2013-04-27 11:53:00,58.9,11.3,30.07,WSW,251,16.1,16.1,15,0.00,CLR,,0.00,WeatherDisplay:10.37,2013-04-27 17:53:00,
2013-04-27 11:58:00,58.1,10.6,30.07,WNW,295,13.8,13.8,15,0.00,CLR,,0.00,WeatherDisplay:10.37,2013-04-27 17:58:00,
2013-04-27 12:03:00,58.4,10.9,30.07,SW,232,18.4,18.4,15,0.00,CLR,,0.00,WeatherDisplay:10.37,2013-04-27 18:03:00,
2013-04-27 12:08:00,58.0,12.0,30.07,WSW,251,18.4,18.4,16,0.00,CLR,,0.00,WeatherDisplay:10.37,2013-04-27 18:08:00,
2013-04-27 12:13:00,58.9,11.3,30.07,WSW,244,8.1,8.1,15,0.00,CLR,,0.00,WeatherDisplay:10.37,2013-04-27 18:13:00,
2013-04-27 12:18:00,58.9,9.7,30.08,WSW,255,11.5,11.5,14,0.00,CLR,,0.00,WeatherDisplay:10.37,2013-04-27 18:18:00,
2013-04-27 12:23:00,59.3,11.6,30.08,West,262,17.3,17.3,15,0.00,CLR,,0.00,WeatherDisplay:10.37,2013-04-27 18:23:00,
2013-04-27 12:28:00,59.2,14.3,30.08,SW,214,16.1,16.1,17,0.00,CLR,,0.00,WeatherDisplay:10.37,2013-04-27 18:28:00,
2013-04-27 12:33:00,59.2,13.0,30.07,West,265,13.0,13.0,16,0.00,CLR,,0.00,WeatherDisplay:10.37,2013-04-27 18:33:00,
2013-04-27 12:38:00,59.2,9.9,30.07,SSW,210,11.5,11.5,14,0.00,CLR,,0.00,WeatherDisplay:10.37,2013-04-27 18:38:00,
2013-04-27 12:43:00,59.3,14.4,30.07,West,275,11.5,11.5,17,0.00,CLR,,0.00,WeatherDisplay:10.37,2013-04-27 18:43:00,
2013-04-27 12:50:00,61.0,11.4,30.05,West,268,12.0,12.0,14,0.00,CLR,,0.00,WeatherDisplay:10.37,2013-04-27 18:50:00,
2013-04-27 12:55:00,60.1,10.7,30.05,WNW,288,16.1,16.1,14,0.00,CLR,,0.00,WeatherDisplay:10.37,2013-04-27 18:55:00,
2013-04-27 13:00:00,59.5,11.7,30.05,WSW,254,11.0,11.0,15,0.00,CLR,,0.00,WeatherDisplay:10.37,2013-04-27 19:00:00,
2013-04-27 13:05:00,59.6,10.3,30.05,WNW,296,11.5,11.5,14,0.00,CLR,,0.00,WeatherDisplay:10.37,2013-04-27 19:05:00,
2013-04-27 13:13:00,61.0,15.8,30.05,SSW,199,13.8,13.8,17,0.00,CLR,,0.00,WeatherDisplay:10.37,2013-04-27 19:13:00,
2013-04-27 13:18:00,60.9,15.7,30.06,SW,234,17.3,17.3,17,0.00,CLR,,0.00,WeatherDisplay:10.37,2013-04-27 19:18:00,
2013-04-27 13:23:00,61.0,15.8,30.06,West,268,13.0,13.0,17,0.00,CLR,,0.00,WeatherDisplay:10.37,2013-04-27 19:23:00,
2013-04-27 13:28:00,61.2,13.1,30.06,West,273,10.4,10.4,15,0.00,CLR,,0.00,WeatherDisplay:10.37,2013-04-27 19:28:00,
2013-04-27 13:33:00,61.2,13.1,30.05,WNW,288,13.8,13.8,15,0.00,CLR,,0.00,WeatherDisplay:10.37,2013-04-27 19:33:00,
2013-04-27 13:38:00,62.3,14.0,30.05,NNW,337,11.5,11.5,15,0.00,CLR,,0.00,WeatherDisplay:10.37,2013-04-27 19:38:00,
2013-04-27 13:43:00,61.5,13.4,30.05,West,265,12.7,12.7,15,0.00,CLR,,0.00,WeatherDisplay:10.37,2013-04-27 19:43:00,
2013-04-27 13:48:00,61.6,17.6,30.06,WNW,303,13.8,13.8,18,0.00,CLR,,0.00,WeatherDisplay:10.37,2013-04-27 19:48:00,
2013-04-27 13:53:00,61.6,14.9,30.06,SSW,193,7.0,7.0,16,0.00,CLR,,0.00,WeatherDisplay:10.37,2013-04-27 19:53:00,
2013-04-27 13:58:00,60.2,12.3,30.06,West,275,13.0,13.0,15,0.00,CLR,,0.00,WeatherDisplay:10.37,2013-04-27 19:58:00,
2013-04-27 14:03:00,60.9,15.7,30.05,WSW,258,12.7,12.7,17,0.00,CLR,,0.00,WeatherDisplay:10.37,2013-04-27 20:03:00,
2013-04-27 14:08:00,62.0,13.8,30.05,NW,316,11.5,11.5,15,0.00,CLR,,0.00,WeatherDisplay:10.37,2013-04-27 20:08:00,
2013-04-27 14:13:00,62.4,19.5,30.05,SW,231,5.0,5.0,19,0.00,CLR,,0.00,WeatherDisplay:10.37,2013-04-27 20:13:00,
2013-04-27 14:18:00,62.1,15.3,30.03,WSW,255,12.7,12.7,16,0.00,CLR,,0.00,WeatherDisplay:10.37,2013-04-27 20:18:00,
2013-04-27 14:23:00,61.0,14.4,30.03,SW,228,11.5,11.5,16,0.00,CLR,,0.00,WeatherDisplay:10.37,2013-04-27 20:23:00,
2013-04-27 14:28:00,61.8,16.5,30.03,SSW,206,10.4,10.4,17,0.00,CLR,,0.00,WeatherDisplay:10.37,2013-04-27 20:28:00,
2013-04-27 14:33:00,61.2,16.0,30.02,WSW,242,18.4,18.4,17,0.00,CLR,,0.00,WeatherDisplay:10.37,2013-04-27 20:33:00,
2013-04-27 14:38:00,60.7,15.6,30.02,SW,227,25.3,25.3,17,0.00,CLR,,0.00,WeatherDisplay:10.37,2013-04-27 20:38:00,
2013-04-27 14:43:00,61.2,17.3,30.02,West,264,18.4,18.4,18,0.00,CLR,,0.00,WeatherDisplay:10.37,2013-04-27 20:43:00,
2013-04-27 14:48:00,61.8,13.6,30.03,West,280,19.0,19.0,15,0.00,CLR,,0.00,WeatherDisplay:10.37,2013-04-27 20:48:00,
2013-04-27 14:53:00,61.5,14.8,30.03,West,271,16.1,16.1,16,0.00,CLR,,0.00,WeatherDisplay:10.37,2013-04-27 20:53:00,
2013-04-27 14:58:00,61.2,14.6,30.03,SSW,196,14.0,14.0,16,0.00,CLR,,0.00,WeatherDisplay:10.37,2013-04-27 20:58:00,
2013-04-27 15:03:00,61.3,13.2,30.02,SW,216,17.3,17.3,15,0.00,CLR,,0.00,WeatherDisplay:10.37,2013-04-27 21:03:00,
2013-04-27 15:08:00,61.2,16.0,30.02,SW,231,19.6,19.6,17,0.00,CLR,,0.00,WeatherDisplay:10.37,2013-04-27 21:08:00,
2013-04-27 15:13:00,61.2,14.6,30.02,WSW,247,14.0,15.2,16,0.00,CLR,,0.00,WeatherDisplay:10.37,2013-04-27 21:13:00,
2013-04-27 15:18:00,61.0,14.4,30.01,SSW,213,18.0,18.0,16,0.00,CLR,,0.00,WeatherDisplay:10.37,2013-04-27 21:18:00,
2013-04-27 15:23:00,61.6,18.9,30.01,West,259,12.0,12.0,19,0.00,CLR,,0.00,WeatherDisplay:10.37,2013-04-27 21:23:00,
2013-04-27 15:28:00,62.1,13.8,30.01,WNW,289,17.3,17.3,15,0.00,CLR,,0.00,WeatherDisplay:10.37,2013-04-27 21:28:00,
2013-04-27 15:33:00,62.7,17.2,30.01,WNW,285,7.0,7.0,17,0.00,CLR,,0.00,WeatherDisplay:10.37,2013-04-27 21:33:00,
2013-04-27 15:38:00,62.4,14.1,30.01,West,271,12.7,12.7,15,0.00,CLR,,0.00,WeatherDisplay:10.37,2013-04-27 21:38:00,
2013-04-27 15:43:00,62.0,15.2,30.01,WNW,288,16.1,16.1,16,0.00,CLR,,0.00,WeatherDisplay:10.37,2013-04-27 21:43:00,
2013-04-27 15:48:00,62.3,14.0,30.00,West,271,11.5,11.5,15,0.00,CLR,,0.00,WeatherDisplay:10.37,2013-04-27 21:48:00,
2013-04-27 15:53:00,62.3,15.5,30.00,WSW,249,17.3,17.3,16,0.00,CLR,,0.00,WeatherDisplay:10.37,2013-04-27 21:53:00,
2013-04-27 15:58:00,62.0,15.2,30.00,West,280,10.4,10.4,16,0.00,CLR,,0.00,WeatherDisplay:10.37,2013-04-27 21:58:00,
2013-04-27 16:03:00,62.3,12.4,30.00,West,275,13.8,13.8,14,0.00,CLR,,0.00,WeatherDisplay:10.37,2013-04-27 22:03:00,
2013-04-27 16:08:00,62.6,15.7,30.00,NW,306,10.4,10.4,16,0.00,CLR,,0.00,WeatherDisplay:10.37,2013-04-27 22:08:00,
2013-04-27 16:13:00,62.6,14.2,30.00,WNW,290,11.5,11.5,15,0.00,CLR,,0.00,WeatherDisplay:10.37,2013-04-27 22:13:00,
2013-04-27 16:18:00,62.4,14.1,29.98,WSW,241,12.7,12.7,15,0.00,CLR,,0.00,WeatherDisplay:10.37,2013-04-27 22:18:00,
2013-04-27 16:23:00,61.6,13.4,29.98,SW,235,17.3,17.3,15,0.00,CLR,,0.00,WeatherDisplay:10.37,2013-04-27 22:23:00,
2013-04-27 16:28:00,62.6,14.2,29.98,SW,232,17.3,17.3,15,0.00,CLR,,0.00,WeatherDisplay:10.37,2013-04-27 22:28:00,
2013-04-27 16:33:00,62.7,17.2,29.97,SSW,199,8.1,8.1,17,0.00,CLR,,0.00,WeatherDisplay:10.37,2013-04-27 22:33:00,
2013-04-27 16:38:00,62.1,12.3,29.97,SW,232,17.3,17.3,14,0.00,CLR,,0.00,WeatherDisplay:10.37,2013-04-27 22:38:00,
2013-04-27 16:43:00,61.6,13.4,29.97,SSW,206,17.3,17.3,15,0.00,CLR,,0.00,WeatherDisplay:10.37,2013-04-27 22:43:00,
2013-04-27 16:48:00,61.3,14.7,29.99,WSW,245,13.8,13.8,16,0.00,CLR,,0.00,WeatherDisplay:10.37,2013-04-27 22:48:00,
2013-04-27 16:53:00,62.0,15.2,29.99,West,280,12.7,12.7,16,0.00,CLR,,0.00,WeatherDisplay:10.37,2013-04-27 22:53:00,
2013-04-27 16:58:00,62.3,15.5,29.99,West,268,16.1,16.1,16,0.00,CLR,,0.00,WeatherDisplay:10.37,2013-04-27 22:58:00,
2013-04-27 17:03:00,62.3,14.0,29.99,West,269,18.0,18.0,15,0.00,CLR,,0.00,WeatherDisplay:10.37,2013-04-27 23:03:00,
2013-04-27 17:08:00,61.5,13.4,29.99,WNW,290,18.4,18.4,15,0.00,CLR,,0.00,WeatherDisplay:10.37,2013-04-27 23:08:00,
2013-04-27 17:13:00,61.2,13.1,29.99,WSW,242,13.8,13.8,15,0.00,CLR,,0.00,WeatherDisplay:10.37,2013-04-27 23:13:00,
2013-04-27 17:18:00,61.0,12.9,30.00,WSW,245,13.8,13.8,15,0.00,CLR,,0.00,WeatherDisplay:10.37,2013-04-27 23:18:00,
2013-04-27 17:23:00,60.9,12.9,30.00,West,269,12.7,12.7,15,0.00,CLR,,0.00,WeatherDisplay:10.37,2013-04-27 23:23:00,
2013-04-27 17:28:00,60.9,12.9,30.00,WNW,302,13.8,13.8,15,0.00,CLR,,0.00,WeatherDisplay:10.37,2013-04-27 23:28:00,
2013-04-27 17:33:00,61.2,14.6,29.99,NW,306,2.3,2.3,16,0.00,CLR,,0.00,WeatherDisplay:10.37,2013-04-27 23:33:00,
2013-04-27 17:38:00,61.0,12.9,29.99,West,279,16.1,16.1,15,0.00,CLR,,0.00,WeatherDisplay:10.37,2013-04-27 23:38:00,
2013-04-27 17:43:00,60.9,12.9,29.99,WSW,242,13.8,13.8,15,0.00,CLR,,0.00,WeatherDisplay:10.37,2013-04-27 23:43:00,
2013-04-27 17:48:00,60.5,12.5,29.99,WSW,255,10.4,10.4,15,0.00,CLR,,0.00,WeatherDisplay:10.37,2013-04-27 23:48:00,
2013-04-27 17:53:00,60.5,14.0,29.99,WSW,245,8.1,8.1,16,0.00,CLR,,0.00,WeatherDisplay:10.37,2013-04-27 23:53:00,
2013-04-27 17:58:00,60.5,15.4,29.99,West,268,13.8,13.8,17,0.00,CLR,,0.00,WeatherDisplay:10.37,2013-04-27 23:58:00,
2013-04-27 18:03:00,60.4,13.9,29.99,West,271,10.4,10.4,16,0.00,CLR,,0.00,WeatherDisplay:10.37,2013-04-28 00:03:00,
2013-04-27 18:08:00,59.8,12.0,29.99,WSW,251,18.4,18.4,15,0.00,CLR,,0.00,WeatherDisplay:10.37,2013-04-28 00:08:00,
2013-04-27 18:13:00,59.5,11.7,29.99,SW,232,11.5,11.5,15,0.00,CLR,,0.00,WeatherDisplay:10.37,2013-04-28 00:13:00,
2013-04-27 18:18:00,59.6,13.3,29.97,West,280,13.8,13.8,16,0.00,CLR,,0.00,WeatherDisplay:10.37,2013-04-28 00:18:00,
2013-04-27 18:23:00,59.2,11.5,29.97,West,280,17.3,17.3,15,0.00,CLR,,0.00,WeatherDisplay:10.37,2013-04-28 00:23:00,
2013-04-27 18:28:00,59.0,11.3,29.97,WNW,285,11.5,11.5,15,0.00,CLR,,0.00,WeatherDisplay:10.37,2013-04-28 00:28:00,
2013-04-27 18:33:00,58.7,12.6,29.97,WNW,285,13.8,13.8,16,0.00,CLR,,0.00,WeatherDisplay:10.37,2013-04-28 00:33:00,
2013-04-27 18:38:00,58.6,12.5,29.97,West,266,11.5,11.5,16,0.00,CLR,,0.00,WeatherDisplay:10.37,2013-04-28 00:38:00,
2013-04-27 18:43:00,58.3,12.2,29.97,WSW,245,12.7,12.7,16,0.00,CLR,,0.00,WeatherDisplay:10.37,2013-04-28 00:43:00,
2013-04-27 18:48:00,57.8,13.2,29.97,West,262,16.1,16.1,17,0.00,CLR,,0.00,WeatherDisplay:10.37,2013-04-28 00:48:00,
2013-04-27 18:53:00,57.5,14.3,29.97,WSW,248,12.0,12.0,18,0.00,CLR,,0.00,WeatherDisplay:10.37,2013-04-28 00:53:00,
2013-04-27 18:58:00,57.3,14.1,29.97,WSW,244,11.5,11.5,18,0.00,CLR,,0.00,WeatherDisplay:10.37,2013-04-28 00:58:00,
2013-04-27 19:03:00,57.0,13.8,29.99,West,262,11.5,11.5,18,0.00,CLR,,0.00,WeatherDisplay:10.37,2013-04-28 01:03:00,
2013-04-27 19:08:00,56.9,13.8,29.99,WNW,295,11.5,11.5,18,0.00,CLR,,0.00,WeatherDisplay:10.37,2013-04-28 01:08:00,
2013-04-27 19:13:00,56.7,14.8,29.99,WNW,289,10.4,10.4,19,0.00,CLR,,0.00,WeatherDisplay:10.37,2013-04-28 01:13:00,
2013-04-27 19:18:00,56.2,15.6,29.92,WNW,296,4.6,4.6,20,0.00,CLR,,0.00,WeatherDisplay:10.37,2013-04-28 01:18:00,
2013-04-27 19:23:00,55.7,15.2,29.92,West,271,5.8,5.8,20,0.00,CLR,,0.00,WeatherDisplay:10.37,2013-04-28 01:23:00,
2013-04-27 19:28:00,55.3,16.0,29.92,WNW,292,5.8,5.8,21,0.00,CLR,,0.00,WeatherDisplay:10.37,2013-04-28 01:28:00,
2013-04-27 19:33:00,55.0,15.7,29.94,WNW,290,4.6,4.6,21,0.00,CLR,,0.00,WeatherDisplay:10.37,2013-04-28 01:33:00,
2013-04-27 19:38:00,54.5,15.3,29.94,WNW,290,2.0,2.0,21,0.00,CLR,,0.00,WeatherDisplay:10.37,2013-04-28 01:38:00,
2013-04-27 19:43:00,54.2,16.1,29.94,WNW,292,5.0,5.0,22,0.00,CLR,,0.00,WeatherDisplay:10.37,2013-04-28 01:43:00,
2013-04-27 19:48:00,53.8,16.8,29.95,WNW,292,2.3,2.3,23,0.00,CLR,,0.00,WeatherDisplay:10.37,2013-04-28 01:48:00,
2013-04-27 19:53:00,53.3,17.4,29.95,WNW,292,2.3,2.3,24,0.00,CLR,,0.00,WeatherDisplay:10.37,2013-04-28 01:53:00,
2013-04-27 19:58:00,52.6,16.8,29.95,WNW,288,5.8,5.8,24,0.00,CLR,,0.00,WeatherDisplay:10.37,2013-04-28 01:58:00,
2013-04-27 20:03:00,52.2,17.4,29.97,WNW,286,5.0,5.0,25,0.00,CLR,,0.00,WeatherDisplay:10.37,2013-04-28 02:03:00,
2013-04-27 20:08:00,51.6,16.9,29.97,WSW,247,8.1,8.1,25,0.00,CLR,,0.00,WeatherDisplay:10.37,2013-04-28 02:08:00,
2013-04-27 20:13:00,51.4,17.6,29.97,West,259,8.1,8.1,26,0.00,CLR,,0.00,WeatherDisplay:10.37,2013-04-28 02:13:00,
2013-04-27 20:18:00,51.0,17.3,29.89,West,259,3.5,3.5,26,0.00,CLR,,0.00,WeatherDisplay:10.37,2013-04-28 02:18:00,
2013-04-27 20:23:00,50.7,17.0,29.89,West,279,3.5,3.5,26,0.00,CLR,,0.00,WeatherDisplay:10.37,2013-04-28 02:23:00,
2013-04-27 20:28:00,50.2,17.5,29.89,West,278,3.5,3.5,27,0.00,CLR,,0.00,WeatherDisplay:10.37,2013-04-28 02:28:00,
2013-04-27 20:33:00,49.9,17.2,29.89,West,272,6.9,6.9,27,0.00,CLR,,0.00,WeatherDisplay:10.37,2013-04-28 02:33:00,
2013-04-27 20:38:00,50.1,16.5,29.89,West,269,2.3,2.3,26,0.00,CLR,,0.00,WeatherDisplay:10.37,2013-04-28 02:38:00,
2013-04-27 20:43:00,49.9,17.2,29.89,NW,312,3.5,3.5,27,0.00,CLR,,0.00,WeatherDisplay:10.37,2013-04-28 02:43:00,
2013-04-27 20:48:00,49.6,17.8,29.89,WNW,286,5.0,5.0,28,0.00,CLR,,0.00,WeatherDisplay:10.37,2013-04-28 02:48:00,
2013-04-27 20:53:00,49.1,17.3,29.89,WSW,254,8.0,8.0,28,0.00,CLR,,0.00,WeatherDisplay:10.37,2013-04-28 02:53:00,
2013-04-27 20:58:00,49.1,17.3,29.89,WSW,254,6.9,6.9,28,0.00,CLR,,0.00,WeatherDisplay:10.37,2013-04-28 02:58:00,
2013-04-27 21:03:00,48.6,17.7,29.91,WSW,249,4.6,4.6,29,0.00,CLR,,0.00,WeatherDisplay:10.37,2013-04-28 03:03:00,
2013-04-27 21:08:00,48.2,18.2,29.91,WSW,251,3.5,3.5,30,0.00,CLR,,0.00,WeatherDisplay:10.37,2013-04-28 03:08:00,
2013-04-27 21:13:00,48.0,18.0,29.91,WNW,295,3.0,3.0,30,0.00,CLR,,0.00,WeatherDisplay:10.37,2013-04-28 03:13:00,
2013-04-27 21:18:00,47.4,18.2,29.90,WNW,295,3.5,3.5,31,0.00,CLR,,0.00,WeatherDisplay:10.37,2013-04-28 03:18:00,
2013-04-27 21:23:00,46.8,17.7,29.90,WNW,302,4.6,4.6,31,0.00,CLR,,0.00,WeatherDisplay:10.37,2013-04-28 03:23:00,
2013-04-27 21:28:00,46.4,16.6,29.90,WNW,302,6.0,6.0,30,0.00,CLR,,0.00,WeatherDisplay:10.37,2013-04-28 03:28:00,
2013-04-27 21:33:00,46.5,17.4,29.92,WNW,299,5.8,5.8,31,0.00,CLR,,0.00,WeatherDisplay:10.37,2013-04-28 03:33:00,
2013-04-27 21:38:00,47.1,16.4,29.92,WNW,285,10.0,10.0,29,0.00,CLR,,0.00,WeatherDisplay:10.37,2013-04-28 03:38:00,
2013-04-27 21:43:00,47.7,16.9,29.92,NW,313,8.1,8.1,29,0.00,CLR,,0.00,WeatherDisplay:10.37,2013-04-28 03:43:00,
2013-04-27 21:48:00,47.9,16.3,29.90,NW,307,10.4,10.4,28,0.00,CLR,,0.00,WeatherDisplay:10.37,2013-04-28 03:48:00,
2013-04-27 21:53:00,47.9,16.3,29.90,WNW,299,4.6,4.6,28,0.00,CLR,,0.00,WeatherDisplay:10.37,2013-04-28 03:53:00,
2013-04-27 21:58:00,47.3,18.9,29.90,WNW,299,1.2,1.2,32,0.00,CLR,,0.00,WeatherDisplay:10.37,2013-04-28 03:58:00,
2013-04-27 22:01:00,47.0,18.6,29.91,WNW,299,1.2,0.0,32,0.00,CLR,,0.00,WeatherDisplay:10.37,2013-04-28 04:01:00,
2013-04-27 22:02:00,46.8,18.5,29.91,WNW,299,2.3,2.3,32,0.00,CLR,,0.00,WeatherDisplay:10.37,2013-04-28 04:02:00,
2013-04-27 22:07:00,46.0,20.5,29.91,WNW,299,1.2,0.0,36,0.00,CLR,,0.00,WeatherDisplay:10.37,2013-04-28 04:07:00,
2013-04-27 22:12:00,45.1,19.0,29.91,WNW,299,4.6,4.6,35,0.00,CLR,,0.00,WeatherDisplay:10.37,2013-04-28 04:12:00,
2013-04-27 22:17:00,44.9,18.9,29.91,SW,225,6.0,6.0,35,0.00,CLR,,0.00,WeatherDisplay:10.37,2013-04-28 04:17:00,
2013-04-27 22:22:00,44.6,19.3,29.91,SW,217,6.9,6.9,36,0.00,CLR,,0.00,WeatherDisplay:10.37,2013-04-28 04:22:00,
2013-04-27 22:27:00,44.2,19.5,29.91,SW,227,5.8,5.8,37,0.00,CLR,,0.00,WeatherDisplay:10.37,2013-04-28 04:27:00,
2013-04-27 22:32:00,43.9,19.9,29.92,WSW,237,4.6,4.6,38,0.00,CLR,,0.00,WeatherDisplay:10.37,2013-04-28 04:32:00,
2013-04-27 22:37:00,43.3,20.0,29.92,West,266,3.5,3.5,39,0.00,CLR,,0.00,WeatherDisplay:10.37,2013-04-28 04:37:00,
2013-04-27 22:42:00,43.2,20.5,29.92,West,266,1.2,1.2,40,0.00,CLR,,0.00,WeatherDisplay:10.37,2013-04-28 04:42:00,
2013-04-27 22:47:00,42.9,19.6,29.92,West,266,0.0,0.0,39,0.00,CLR,,0.00,WeatherDisplay:10.37,2013-04-28 04:47:00,
2013-04-27 22:52:00,42.5,20.4,29.92,WNW,288,3.5,3.5,41,0.00,CLR,,0.00,WeatherDisplay:10.37,2013-04-28 04:52:00,
2013-04-27 22:57:00,41.8,20.4,29.92,NW,326,2.3,2.3,42,0.00,CLR,,0.00,WeatherDisplay:10.37,2013-04-28 04:57:00,
2013-04-27 23:02:00,41.2,20.4,29.93,North,5,1.2,1.2,43,0.00,CLR,,0.00,WeatherDisplay:10.37,2013-04-28 05:02:00,
2013-04-27 23:07:00,40.6,19.8,29.93,North,5,0.0,0.0,43,0.00,CLR,,0.00,WeatherDisplay:10.37,2013-04-28 05:07:00,
2013-04-27 23:12:00,40.2,20.0,29.93,North,5,1.2,1.2,44,0.00,CLR,,0.00,WeatherDisplay:10.37,2013-04-28 05:12:00,
2013-04-27 23:17:00,39.6,20.0,29.92,North,5,2.3,2.3,45,0.00,CLR,,0.00,WeatherDisplay:10.37,2013-04-28 05:17:00,
2013-04-27 23:22:00,39.3,19.7,29.92,North,5,1.2,1.2,45,0.00,CLR,,0.00,WeatherDisplay:10.37,2013-04-28 05:22:00,
2013-04-27 23:27:00,39.1,20.0,29.92,North,5,0.0,0.0,46,0.00,CLR,,0.00,WeatherDisplay:10.37,2013-04-28 05:27:00,
2013-04-27 23:32:00,38.8,20.8,29.93,North,5,2.3,2.3,48,0.00,CLR,,0.00,WeatherDisplay:10.37,2013-04-28 05:32:00,
2013-04-27 23:37:00,38.5,19.5,29.93,NNW,336,3.5,3.5,46,0.00,CLR,,0.00,WeatherDisplay:10.37,2013-04-28 05:37:00,
2013-04-27 23:42:00,38.3,19.3,29.93,NNW,336,2.3,2.3,46,0.00,CLR,,0.00,WeatherDisplay:10.37,2013-04-28 05:42:00,
2013-04-27 23:47:00,38.0,21.0,29.93,NNW,336,1.2,0.0,50,0.00,CLR,,0.00,WeatherDisplay:10.37,2013-04-28 05:47:00,
2013-04-27 23:52:00,37.9,20.4,29.93,NNW,336,3.5,3.5,49,0.00,CLR,,0.00,WeatherDisplay:10.37,2013-04-28 05:52:00,
2013-04-27 23:57:00,38.0,19.5,29.93,NW,324,0.0,0.0,47,0.00,CLR,,0.00,WeatherDisplay:10.37,2013-04-28 05:57:00,